Weather in Khobot-Bogoyavlenskoye

Russia / Tambov Oblast     53°10′43″N   40°32′05″E
temp.,
°C
wind,
m/s
gust,
m/s
humid.,
%
clouds,
%
prec.,
mm/h
press.,
hPa
HPBL,
m
28 february, sun
sun2800:00−10nnw379667 0.0 1013179
03:00−11nnw239643 0.0 101450
06:00−10nw229698 0.1 101535
09:00−9nw369494 0.2 1016290
12:00−7nw359289 0.0 1016405
15:00−6nnw369195 0.1 1016497
18:00−7nnw3395100 0.1 101750
21:00−7n2595100 0.1 1019194
1 march, mon
mon100:00−7n2296100 0.1 102183
03:00−7n2494100 0.1 1023136
06:00−7nw2294100 0.1 102471
09:00−7wnw2295100 0.1 102666
12:00−4w349373 0.0 1025286
15:00−3wsw479251 0.0 1024389
18:00−4wsw5109545 0.0 1023268
21:00−4wsw5119471 0.1 1021312
2 march, tue
tue200:00−2wsw71394100 0.1 1018455
03:00−1wsw71494100 0.2 1015605
06:00+1w81492100 0.0 1011866
09:00+1w81597100 0.1 1008680
12:00+1nw71395100 0.3 1008807
15:00+1nw7129197 0.4 1009875
18:00−1wnw5139381 0.1 1009583
21:00−2nw6149490 0.3 1010717
3 march, wed
wed300:00−3nw6139297 0.1 1010517
03:00−3nw6139495 0.1 1011542
06:00−4nw7139387 0.1 1012624
09:00−4nnw8138892 0.2 1014854
12:00−3nnw81186100 0.1 1016906
15:00−2nw8128898 0.1 10161196
18:00−4nw5138773 0.1 1017442
21:00−6nw4119239 0.1 1019265
4 march, thu
thu400:00−6wnw489525 0.0 1020149
03:00−7w469344 0.0 1019114
06:00−7wsw499420 0.0 1018152
09:00−5wsw6119218 0.0 1017343
12:00−1wsw7138761 0.0 1015567
15:000wsw7138480 0.0 1013613
18:00−1sw71686100 0.0 1010625
21:00−1sw7188576 0.0 1009564